Regional Weather Roundup
Issued by NWS

Home | Current Version | Previous Version | Text Only | Print | Product List | Glossary Off
Versions: 1 2 3 4 5 6 7 8 9 10 11 12 13 14 15 16 17 18 19 20 21 22 23 24 25 26 27 28 29 30 31 32 33 34 35 36 37 38 39 40 41 42 43 44 45 46 47 48 49 50

000
ASUS43 KMKX 302100
RWRWI

WISCONSIN REGIONAL WEATHER ROUNDUP
NATIONAL WEATHER SERVICE MILWAUKEE/SULLIVAN WI
400 PM CDT WED JUL 30 2014

NOTE: "FAIR" INDICATES FEW OR NO CLOUDS BELOW 12,000 FEET WITH NO
SIGNIFICANT WEATHER AND/OR OBSTRUCTIONS TO VISIBILITY.

WIZ001-002-006>008-014>016-023>028-302200-
NORTHWEST WISCONSIN

CITY           SKY/WX    TMP DP  RH WIND       PRES   REMARKS
SUPERIOR ARPT  PTSUNNY   80  61  52 NW9       29.96F HX  81
ASHLAND        MOSUNNY   75  61  61 SW7       29.97F
HAYWARD        MOSUNNY   67  61  81 W5        30.02S
SIREN          MOSUNNY   78  59  51 W13G18    30.02F
RICE LAKE      PTSUNNY   74  57  55 W7        30.04F
LADYSMITH      MOSUNNY   73  58  59 W7        30.05F
EAU CLAIRE     NOT AVBL
MENOMONIE      PTCLDY    77  58  50 W7        30.04F
NEW RICHMOND   RAIN      71  61  69 NW7G18    30.05S
OSCEOLA        PTSUNNY   76  61  57 N3        30.06F
$$

WIZ003>005-009-010-017-018-302200-
NORTH CENTRAL WISCONSIN

CITY           SKY/WX    TMP DP  RH WIND       PRES   REMARKS
WOODRUFF       MOSUNNY   77  55  46 W8        30.01F
RHINELANDER    MOSUNNY   72  50  45 W8        30.02F
EAGLE RIVER    MOSUNNY   71  49  45 W12G17    30.00F
LAND O LAKES   MOSUNNY   72  47  40 SW5       30.00F
PHILLIPS       SUNNY     71  53  51 W7        30.02F
TOMAHAWK       SUNNY     70  51  49 W7        30.03F
MEDFORD        SUNNY     70  53  54 W8        30.04F
MERRILL        MOSUNNY   72  52  49 W9        30.03S
$$

WIZ029-030-035-036-043>047-302200-
CENTRAL WISCONSIN

CITY           SKY/WX    TMP DP  RH WIND       PRES   REMARKS
WAUSAU         MOSUNNY   73  48  41 NW13G18   30.01F
MOSINEE        MOSUNNY   73  46  38 SW9       30.04F
MARSHFIELD     SUNNY     74  51  44 NW9       30.03F
STEVENS POINT  MOSUNNY   72  47  41 W7        30.03F
WAUPACA        MOSUNNY   79  41  26 SW6       30.01F
WAUTOMA        NOT AVBL
WISC RAPIDS    SUNNY     76  49  38 W8        30.04F
CAMP DOUGLAS   NOT AVBL
$$

WIZ011>013-019>022-031-037>040-048>050-302200-
NORTHEAST WISCONSIN

CITY           SKY/WX    TMP DP  RH WIND       PRES   REMARKS
ANTIGO         MOSUNNY   71  51  49 NW9       30.03S
STURGEON BAY   SUNNY     70  48  46 CALM      30.01F
GREEN BAY      MOSUNNY   73  53  49 W7        29.99F
MANITOWOC      NOT AVBL
APPLETON       PTSUNNY   73  48  40 NW6       30.02F
CLINTONVILLE   PTSUNNY   75  45  33 W8        30.00F
OSHKOSH        SUNNY     74  52  46 VRB3      30.01F
$$

WIZ032>034-041-042-053>061-302200-
SOUTHWEST WISCONSIN

CITY           SKY/WX    TMP DP  RH WIND       PRES   REMARKS
LA CROSSE      SUNNY     79  57  46 NW10      30.04F HX  80
SPARTA         SUNNY     75  51  43 W5        30.06F
VIROQUA        FAIR      74  54  49 NW3       30.07S
BOSCOBEL       MOSUNNY   82  54  37 NW8       30.04F HX  81
PRAIRIE DU CHI MOSUNNY   79  52  38 N10       30.04F
PLATTEVILLE    PTSUNNY   78  54  42 NW13      30.06S
$$

WIZ056-057-062-063-064-067-068-302200-
SOUTH CENTRAL WISCONSIN

CITY           SKY/WX    TMP DP  RH WIND       PRES   REMARKS
BARABOO/DELLS  MOSUNNY   76  45  33 NW7       30.04F
LONE ROCK      NOT AVBL
WATERTOWN      MOSUNNY   74  56  52 W9        30.03S
MADISON        MOSUNNY   77  53  43 N8        30.04S
MIDDLETON      FAIR      76  49  39 N7        30.05S
MONROE         MOSUNNY   77  52  41 W8        30.04S
JANESVILLE     MOSUNNY   79  54  41 NW12      30.02S
$$

WIZ051-052-058>065-066-070>072-302200-
SOUTHEAST WISCONSIN

CITY           SKY/WX    TMP DP  RH WIND       PRES   REMARKS
MILWAUKEE      MOSUNNY   68  56  65 E8        30.03F
WAUKESHA       MOSUNNY   72  55  56 W7        30.04S
MILWAUKEE/TIMM MOSUNNY   70  52  52 E7        30.04S
RACINE         SUNNY     71  57  61 NE7       30.05F
BURLINGTON     SUNNY     73  53  50 NW12      30.03F
KENOSHA        MOSUNNY   69  59  70 E7        30.04S
FOND DU LAC    MOSUNNY   74  50  42 VRB6      30.02F
SHEBOYGAN      PTSUNNY   74  51  44 W6        30.01F
WEST BEND      SUNNY     72  43  35 N9        30.03S
JUNEAU         MOSUNNY   73  47  39 NW3       30.04F
$$

LSZ147-162-302200-
LAKE SUPERIOR

STATION/POSITION TIME  TEMP    WIND        PRES    WAVE
                       AIR SEA DIR/SP/G            HT/PER
                 (UTC) (F)     (DEG/KT/KT) (MB)    (FT/S)
W MID LAKE BUOY  1950   50 42  210/ 12/ 14 1013.7F   1/ 3
PORT WING        2000   74     250/  9/ 13 1014.6F
SAXON HARBOR     2000          250/  6/ 11 1015.2F
$$

LMZ867-665-643>646-302200-
LAKE MICHIGAN

STATION/POSITION TIME  TEMP    WIND        PRES    WAVE
                       AIR SEA DIR/SP/G            HT/PER
                 (UTC) (F)     (DEG/KT/KT) (MB)    (FT/S)
N MID LAKE BUOY  1950   53 54  210/  8/ 10 1015.9F   0
NORTHPORT PIER   2000   63     140/  8/ 11 1015.9F
SISTER BAY       2040   73     180/  9/ 11   N/A
KEWAUNEE LAKESHO 2000   58     170/  5/  5 1017.6F
SHEBOYGAN LAKESH 2000   62     160/ 10/ 11 1017.0F
PORT WASHINGTON  2000   66     140/  5/  7 1017.6S
ATWATER BUOY     2000   62     120/  6     1018.3S
MILWAUKEE LAKESH 2000   62     110/  7/  8   N/A
S MID LAKE BUOY  1950   58 61  340/  8/ 10 1017.4F   1
KENOSHA   LAKESH 2000   62      40/ 11/ 13 1016.9S
$$

TC  - TEMPERATURE IN CELSIUS
VSB - VISIBILITY IN STATUTE MILES
WCI - WIND CHILL INDEX
HX  - HEAT INDEX



USA.gov is the U.S. government's official web portal to all federal, state and local government web resources and services.